FW8022 Weather Reports


Display with metric or nautical units.
time (UTC)temp
F
wind
direction
speed
MPH
gust
MPH
rain 1hr
in
rain 24hr
in
rain mn
in
humidity
%
barometer
mb
20260505053045 52 301 0.0 7.0 0.01 0.01 0.01 86 1014.1
20260505052536 52 291 2.0 7.0 0.01 0.01 0.01 86 1014.2
20260505052037 53 293 1.0 7.0 0.00 0.00 0.00 86 1014.2
20260505051606 53 333 2.0 7.0 0.00 0.00 0.00 85 1014.4
20260505051037 53 339 1.0 7.0 0.00 0.00 0.00 85 1014.6
20260505050537 53 346 1.0 7.0 0.00 0.00 0.00 84 1014.7
20260505041548 53 0 2.0 5.0 0.00 0.00 0.00 83 1014.4
20260505041038 53 329 1.0 9.0 0.00 0.00 0.00 83 1014.3
20260505040538 54 336 1.0 9.0 0.00 0.00 0.00 84 1014.2
20260505040044 54 0 3.0 9.0 0.00 0.00 0.00 84 1014.1
20260505035537 54 335 2.0 7.0 0.00 0.00 0.00 84 1013.8
20260505035037 54 0 1.0 5.0 0.00 0.00 0.00 84 1013.8
20260505034539 54 280 2.0 6.0 0.00 0.00 0.00 84 1013.8
20260505034038 54 323 1.0 7.0 0.00 0.00 0.00 85 1013.7
20260505033538 54 327 2.0 7.0 0.00 0.00 0.00 85 1013.7
20260505033046 54 0 2.0 6.0 0.00 0.00 0.00 86 1013.7
20260505032537 54 328 2.0 6.0 0.00 0.00 0.00 86 1013.6
20260505032037 54 292 2.0 7.0 0.00 0.00 0.00 86 1013.6
20260505031553 54 271 1.0 7.0 0.00 0.00 0.00 86 1013.6
20260505031037 54 276 1.0 6.0 0.00 0.00 0.00 87 1013.6
20260505030541 54 323 2.0 6.0 0.00 0.00 0.00 87 1013.7
20260505030055 55 52 1.0 5.0 0.00 0.00 0.00 87 1013.6
20260505025537 55 303 2.0 5.0 0.00 0.00 0.00 87 1013.6
20260505025037 55 338 1.0 5.0 0.00 0.00 0.00 87 1013.6
20260505024548 55 290 2.0 5.0 0.00 0.00 0.00 87 1013.7
20260505024038 55 346 1.0 6.0 0.00 0.00 0.00 86 1013.6
20260505023538 56 306 2.0 6.0 0.00 0.00 0.00 86 1013.6
20260505023043 56 221 2.0 6.0 0.00 0.00 0.00 86 1013.5
20260505022538 56 310 2.0 6.0 0.00 0.00 0.00 86 1013.5
20260505022038 56 318 2.0 6.0 0.00 0.00 0.00 86 1013.5
20260505021539 56 271 2.0 6.0 0.00 0.00 0.00 86 1013.5
20260505021038 56 261 2.0 6.0 0.00 0.00 0.00 86 1013.5
20260505020538 56 286 2.0 6.0 0.00 0.00 0.00 85 1013.6
20260505020052 56 250 2.0 4.0 0.00 0.00 0.00 85 1013.7
20260505015539 56 257 1.0 4.0 0.00 0.00 0.00 85 1013.7
20260505015038 56 234 2.0 7.0 0.00 0.00 0.00 85 1013.8
20260505014549 56 283 2.0 7.0 0.00 0.00 0.00 84 1013.9
20260505014040 56 238 2.0 6.0 0.00 0.00 0.00 84 1013.8
20260505013537 56 299 2.0 6.0 0.00 0.00 0.00 84 1013.8
20260505013044 56 280 2.0 4.0 0.00 0.00 0.00 83 1013.8
20260505012538 56 242 2.0 4.0 0.00 0.00 0.00 83 1013.8
20260505012037 57 265 1.0 4.0 0.00 0.00 0.00 83 1013.9
20260505011544 57 240 2.0 5.0 0.00 0.00 0.00 83 1013.9
20260505011038 57 301 2.0 5.0 0.00 0.00 0.00 83 1013.9
20260505010537 56 261 2.0 5.0 0.00 0.00 0.00 83 1013.9
20260505010048 57 248 2.0 6.0 0.00 0.00 0.00 83 1014.0
20260505005538 57 253 2.0 6.0 0.00 0.00 0.00 82 1014.0
20260505005037 57 254 2.0 6.0 0.00 0.00 0.00 82 1014.0
20260505004548 57 288 2.0 6.0 0.00 0.00 0.00 82 1014.0
20260505004038 57 231 2.0 5.0 0.00 0.00 0.00 82 1014.0
20260505003538 57 248 3.0 4.0 0.00 0.00 0.00 82 1014.1
20260505003054 57 240 2.0 5.0 0.00 0.00 0.00 82 1014.2
20260505002537 57 231 2.0 5.0 0.00 0.00 0.00 81 1014.2
20260505002038 57 245 1.0 5.0 0.00 0.00 0.00 81 1014.2
20260505001545 57 247 2.0 5.0 0.00 0.00 0.00 81 1014.2
20260505001037 57 232 3.0 5.0 0.00 0.00 0.00 81 1014.2
20260505000537 57 232 2.0 5.0 0.00 0.00 0.00 80 1014.2
20260505000046 57 244 3.0 6.0 0.00 0.00 0.00 80 1014.2
20260504235537 57 246 3.0 6.0 0.00 0.00 0.00 81 1014.2
20260504235037 58 234 2.0 7.0 0.00 0.00 0.00 81 1014.3
20260504234549 57 250 3.0 6.0 0.00 0.00 0.00 81 1014.1
20260504234037 57 216 3.0 7.0 0.00 0.00 0.00 82 1014.0
20260504233540 57 212 3.0 7.0 0.00 0.00 0.00 83 1014.1
20260504233101 57 219 3.0 5.0 0.00 0.00 0.00 82 1014.1
20260504232538 57 234 3.0 6.0 0.00 0.00 0.00 81 1014.1
20260504232037 58 225 3.0 7.0 0.00 0.00 0.00 81 1014.0
20260504231548 58 244 2.0 7.0 0.00 0.00 0.00 80 1014.1
20260504231038 58 260 2.0 8.0 0.00 0.00 0.00 79 1014.0
20260504230535 58 265 3.0 8.0 0.00 0.00 0.00 79 1014.1
20260504230053 58 236 3.0 8.0 0.00 0.00 0.00 78 1014.1
20260504225542 58 216 3.0 7.0 0.00 0.00 0.00 77 1014.2
20260504225037 58 198 4.0 7.0 0.00 0.00 0.00 77 1014.1
20260504224542 58 242 4.0 7.0 0.00 0.00 0.00 77 1014.2
20260504224037 59 228 3.0 7.0 0.00 0.00 0.00 78 1014.2
20260504223537 58 209 3.0 7.0 0.00 0.00 0.00 76 1014.2
20260504223054 58 256 4.0 7.0 0.00 0.00 0.00 75 1014.2
20260504222537 59 248 4.0 7.0 0.00 0.00 0.00 75 1014.3
20260504222038 59 242 3.0 6.0 0.00 0.00 0.00 75 1014.4
20260504221552 59 250 3.0 8.0 0.00 0.00 0.00 75 1014.4
20260504221037 59 227 4.0 8.0 0.00 0.00 0.00 76 1014.4
20260504220537 60 205 4.0 7.0 0.00 0.00 0.00 77 1014.4
20260504220052 59 188 3.0 7.0 0.00 0.00 0.00 77 1014.4
20260504215538 60 247 3.0 5.0 0.00 0.00 0.00 78 1014.4
20260504215037 59 248 3.0 5.0 0.00 0.00 0.00 78 1014.5
20260504214545 59 246 2.0 5.0 0.00 0.00 0.00 76 1014.4
20260504214040 59 249 2.0 5.0 0.00 0.00 0.00 75 1014.4
20260504213540 60 219 2.0 7.0 0.00 0.00 0.00 75 1014.4
20260504213047 60 244 3.0 7.0 0.00 0.00 0.00 74 1014.4
20260504212538 60 239 3.0 6.0 0.00 0.00 0.00 73 1014.3
20260504212038 60 285 2.0 7.0 0.00 0.00 0.00 73 1014.3
20260504211546 60 252 3.0 7.0 0.00 0.00 0.00 73 1014.4
20260504211037 60 229 3.0 7.0 0.00 0.00 0.00 74 1014.4
20260504210540 60 216 3.0 7.0 0.00 0.00 0.00 73 1014.5
20260504210059 61 235 3.0 8.0 0.00 0.00 0.00 73 1014.5
20260504205537 61 284 2.0 8.0 0.00 0.00 0.00 72 1014.5
20260504205038 60 238 4.0 6.0 0.00 0.00 0.00 73 1014.5
20260504204549 60 246 3.0 7.0 0.00 0.00 0.00 73 1014.5
20260504204036 61 252 3.0 7.0 0.00 0.00 0.00 70 1014.6
20260504203537 62 298 3.0 7.0 0.00 0.00 0.00 76 1014.5
20260504203055 60 283 3.0 6.0 0.00 0.00 0.00 78 1014.5
20260504202537 60 252 2.0 6.0 0.00 0.00 0.00 77 1014.5
20260504202036 60 239 3.0 6.0 0.00 0.00 0.00 75 1014.4
20260504201547 61 245 3.0 8.0 0.00 0.00 0.00 75 1014.4
20260504201037 61 209 4.0 8.0 0.00 0.00 0.00 76 1014.5
20260504200537 60 298 3.0 8.0 0.00 0.00 0.00 77 1014.5
20260504200045 60 316 2.0 7.0 0.00 0.00 0.00 76 1014.6
20260504195538 60 264 3.0 7.0 0.00 0.00 0.00 75 1014.6
20260504195036 61 242 3.0 6.0 0.00 0.00 0.00 75 1014.6
20260504194545 61 246 3.0 8.0 0.00 0.00 0.00 74 1014.6
20260504194040 60 284 3.0 8.0 0.00 0.00 0.00 74 1014.6
20260504193538 60 259 3.0 8.0 0.00 0.00 0.00 76 1014.5
20260504193043 60 246 3.0 9.0 0.00 0.00 0.00 75 1014.5
20260504192541 60 271 5.0 9.0 0.00 0.00 0.00 75 1014.5
20260504192041 60 296 3.0 9.0 0.00 0.00 0.00 76 1014.6
20260504191543 60 259 5.0 9.0 0.00 0.00 0.00 76 1014.6
20260504191037 60 261 3.0 9.0 0.00 0.00 0.00 74 1014.6
20260504190539 60 258 3.0 8.0 0.00 0.00 0.00 76 1014.6
20260504190107 60 277 3.0 8.0 0.00 0.00 0.00 77 1014.6
20260504185538 60 281 4.0 8.0 0.00 0.00 0.00 79 1014.6
20260504185036 59 247 3.0 5.0 0.00 0.00 0.00 80 1014.5
20260504184545 58 256 2.0 5.0 0.00 0.00 0.00 81 1014.5
20260504184041 58 248 3.0 5.0 0.00 0.00 0.00 80 1014.5
20260504183537 59 243 2.0 5.0 0.00 0.00 0.00 82 1014.5
20260504183045 58 228 2.0 5.0 0.00 0.00 0.00 84 1014.5
20260504182536 57 242 3.0 5.0 0.00 0.00 0.00 83 1014.4
20260504182038 57 238 2.0 5.0 0.00 0.00 0.00 83 1014.5
20260504181544 57 231 2.0 5.0 0.00 0.00 0.00 83 1014.4
20260504181037 57 202 1.0 4.0 0.00 0.00 0.00 84 1014.5
20260504180539 57 239 1.0 4.0 0.00 0.00 0.00 83 1014.5
20260504180052 57 241 2.0 4.0 0.00 0.00 0.00 83 1014.4
20260504175537 58 242 2.0 5.0 0.00 0.00 0.00 83 1014.3
20260504175037 57 258 2.0 5.0 0.00 0.00 0.00 84 1014.2
20260504174553 57 252 2.0 5.0 0.00 0.00 0.00 84 1014.2
20260504174037 57 250 3.0 5.0 0.00 0.00 0.00 84 1014.2
20260504173536 57 250 2.0 6.0 0.00 0.00 0.00 84 1014.2
20260504173044 57 225 3.0 8.0 0.00 0.00 0.00 84 1014.1
20260504172537 58 248 3.0 8.0 0.00 0.00 0.00 84 1014.0
20260504172036 58 241 5.0 8.0 0.00 0.00 0.00 83 1013.8
20260504171546 58 238 4.0 9.0 0.00 0.00 0.00 83 1013.8
20260504171040 58 237 3.0 9.0 0.00 0.00 0.00 83 1013.7
20260504170537 57 234 4.0 8.0 0.00 0.00 0.00 83 1013.7
20260504151037 55 192 2.0 4.0 0.00 0.00 0.00 86 1013.5
20260504150537 55 238 1.0 2.0 0.00 0.00 0.00 87 1013.6
20260504141038 53 42 0.0 1.0 0.00 0.00 0.00 90 1013.3
20260504140538 53 42 0.0 1.0 0.00 0.00 0.00 90 1013.3
20260504130537 52 192 1.0 4.0 0.00 0.00 0.00 90 1013.1
20260504110540 53 192 0.0 3.0 0.00 0.00 0.00 91 1013.0
20260504100536 53 200 1.0 3.0 0.00 0.00 0.00 91 1012.8
20260504081559 53 194 2.0 3.0 0.00 0.00 0.00 89 1013.4
20260504081036 53 194 1.0 3.0 0.00 0.00 0.00 89 1013.4
20260504080537 53 180 2.0 4.0 0.00 0.00 0.00 89 1013.5
20260504060106 54 181 2.0 5.0 0.00 0.00 0.00 89 1013.4